TimeCDT,TemperatureF,Dew PointF,Humidity,Sea Level PressureIn,VisibilityMPH,Wind Direction,Wind SpeedMPH,Gust SpeedMPH,PrecipitationIn,Events,Conditions,WindDirDegrees,DateUTC
12:56 AM,39.0,36.0,89,29.92,-9999.0,West,3.5,-,0.01,,Unknown,260,2012-10-11 05:56:00
1:56 AM,37.9,35.1,89,29.91,-9999.0,West,3.5,-,0.01,,Unknown,280,2012-10-11 06:56:00
2:56 AM,37.9,35.1,89,29.89,-9999.0,West,3.5,-,N/A,,Unknown,280,2012-10-11 07:56:00
3:56 AM,37.0,35.1,93,29.89,-9999.0,Calm,Calm,-,N/A,,Unknown,0,2012-10-11 08:56:00
4:56 AM,37.0,34.0,89,29.88,-9999.0,Variable,3.5,-,N/A,,Unknown,0,2012-10-11 09:56:00
5:56 AM,37.0,34.0,89,29.89,-9999.0,WSW,3.5,-,N/A,,Unknown,250,2012-10-11 10:56:00
6:56 AM,36.0,32.0,86,29.91,-9999.0,WSW,4.6,-,N/A,,Unknown,250,2012-10-11 11:56:00
7:56 AM,37.9,32.0,79,29.91,-9999.0,Variable,4.6,-,N/A,,Unknown,0,2012-10-11 12:56:00
8:56 AM,42.1,30.9,65,29.94,-9999.0,NW,10.4,24.2,N/A,,Unknown,310,2012-10-11 13:56:00
9:56 AM,44.1,30.0,58,29.96,-9999.0,Variable,5.8,-,N/A,,Unknown,0,2012-10-11 14:56:00
10:56 AM,44.1,27.0,51,29.99,-9999.0,NW,12.7,24.2,N/A,,Unknown,310,2012-10-11 15:56:00
11:56 AM,46.0,28.0,50,30.02,-9999.0,WNW,10.4,20.7,N/A,,Unknown,290,2012-10-11 16:56:00
12:56 PM,48.0,28.0,46,30.03,-9999.0,NW,9.2,23.0,N/A,,Unknown,320,2012-10-11 17:56:00
1:56 PM,42.1,34.0,73,30.06,-9999.0,NNW,9.2,16.1,0.01,,Unknown,340,2012-10-11 18:56:00
2:56 PM,44.1,30.0,58,30.10,-9999.0,NNW,12.7,21.9,N/A,,Unknown,330,2012-10-11 19:56:00
3:56 PM,45.0,23.0,42,30.13,-9999.0,Variable,5.8,25.3,N/A,,Unknown,0,2012-10-11 20:56:00
4:56 PM,44.1,24.1,45,30.15,-9999.0,Variable,4.6,-,N/A,,Unknown,0,2012-10-11 21:56:00
5:56 PM,42.1,23.0,47,30.19,-9999.0,Variable,4.6,-,N/A,,Unknown,0,2012-10-11 22:56:00
6:56 PM,37.9,23.0,55,30.23,-9999.0,Calm,Calm,-,N/A,,Unknown,0,2012-10-11 23:56:00
7:56 PM,32.0,23.0,69,30.26,-9999.0,Calm,Calm,-,N/A,,Unknown,0,2012-10-12 00:56:00
8:56 PM,30.0,23.0,75,30.27,-9999.0,NW,3.5,-,N/A,,Unknown,310,2012-10-12 01:56:00
9:56 PM,30.0,23.0,75,30.29,-9999.0,NW,4.6,-,N/A,,Unknown,320,2012-10-12 02:56:00
10:56 PM,28.9,23.0,78,30.31,-9999.0,Calm,Calm,-,N/A,,Unknown,0,2012-10-12 03:56:00
11:56 PM,32.0,26.1,79,30.32,-9999.0,WNW,3.5,-,N/A,,Unknown,300,2012-10-12 04:56:00